Weather History for Scappoose, OR

Change the Weather History Date:

Saturday, November 2, 2013

  Actual Average Record
Temperature  
Mean Temperature 48 °F -  
Max Temperature 56 °F - 66 °F (2010)
Min Temperature 39 °F - -1 °F (2010)
Degree Days  
Heating Degree Days 17    
Month to date heating degree days 31  
Since 1 July heating degree days 601  
Cooling Degree Days 0    
Month to date cooling degree days 0  
Year to date cooling degree days 396  
Moisture  
Dew Point 45 °F    
Average Humidity 78    
Maximum Humidity 100    
Minimum Humidity 55    
Precipitation  
Precipitation 0.31 in - 1.44 in (2006)
Month to date precipitation 0.53  
Year to date precipitation 23.04  
Sea Level Pressure  
Sea Level Pressure 29.87 in    
Wind  
Wind Speed 8 mph (SSW)    
Max Wind Speed 29 mph    
Max Gust Speed 43 mph    
Visibility 7 miles    
Events Rain    
T = Trace of Precipitation, MM = Missing Value Source: NWS Daily Summary

Daily Weather History Graph

Daily Weather History Graph

Search for Another Location

Airport:

Trip Planner

Search our weather history database for the weather conditions in past years. The results will help you decide how hot, cold, wet, or windy it might be!

Date:

Astronomy

Nov. 02, 2013 Rise Set
Actual Time 7:53 AM PDT 5:55 PM PDT
Civil Twilight 7:22 AM PDT 6:27 PM PDT
Nautical Twilight 6:46 AM PDT 7:02 PM PDT
Astronomical Twilight 6:12 AM PDT 7:36 PM PDT
Moon 6:54 AM PDT (11/2) 5:31 PM PDT (11/2)
Length of Visible Light 11h 04m
Length of Day
10h 02m
Waning Crescent, 1% of the Moon is Illuminated
Nov 2
Waning Crescent
Nov 3
New
Nov 9
First Quarter
Nov 17
Full
Nov 25
Last Quarter

Hourly Weather History & Observations

Time (PDT) Temp. Windchill Dew Point Humidity Pressure Visibility Wind Dir Wind Speed Gust Speed Precip Events Conditions
12:39 AM 53.1 °F - 51.1 °F 93% 29.87 in 3.0 mi Calm Calm - 0.04 in Rain Light Rain
12:53 AM 52.0 °F - 51.1 °F 97% 29.88 in 4.0 mi Calm Calm - 0.04 in Rain Light Rain
1:30 AM 53.1 °F - 51.1 °F 93% 29.85 in 4.0 mi SSE 4.6 mph - 0.01 in Rain Light Rain
1:48 AM 53.6 °F - 51.8 °F 94% 29.84 in 3.0 mi SSE 8.1 mph - 0.02 in Rain Light Rain
1:53 AM 53.1 °F - 51.1 °F 93% 29.84 in 3.0 mi South 5.8 mph - 0.02 in Rain Light Rain
2:02 AM 53.1 °F - 51.1 °F 93% 29.83 in 3.0 mi SSW 5.8 mph - 0.00 in Rain Light Rain
2:11 AM 53.1 °F - 51.1 °F 93% 29.83 in 2.5 mi South 3.5 mph - 0.01 in Rain Light Rain
2:43 AM 53.1 °F - 51.1 °F 93% 29.81 in 3.0 mi SSE 5.8 mph - 0.04 in Rain Light Rain
2:48 AM 53.6 °F - 50.0 °F 88% 29.79 in 3.0 mi SE 11.5 mph - 0.05 in Rain Light Rain
2:53 AM 52.0 °F - 50.0 °F 93% 29.80 in 3.0 mi SE 9.2 mph - 0.07 in Rain Rain
3:19 AM 52.0 °F - 50.0 °F 93% 29.76 in 4.0 mi SE 13.8 mph - 0.02 in Rain Light Rain
3:53 AM 52.0 °F - 50.0 °F 93% 29.75 in 4.0 mi SE 9.2 mph - 0.05 in Rain Light Rain
4:20 AM 52.0 °F - 50.0 °F 93% 29.77 in 4.0 mi South 3.5 mph - 0.01 in Rain Light Rain
4:53 AM 52.0 °F - 50.0 °F 93% 29.73 in 10.0 mi ESE 10.4 mph - 0.04 in Rain Light Rain
5:03 AM 52.0 °F - 48.9 °F 89% 29.71 in 7.0 mi SE 8.1 mph - 0.01 in Rain Rain
5:53 AM 52.0 °F - 48.9 °F 89% 29.72 in 6.0 mi South 10.4 mph 19.6 mph 0.03 in Rain Light Rain
6:53 AM 52.0 °F - 48.9 °F 89% 29.72 in 10.0 mi SSW 6.9 mph - 0.01 in Rain Light Rain
7:27 AM 51.1 °F - 48.9 °F 92% 29.74 in 10.0 mi SSW 6.9 mph - 0.00 in   Mostly Cloudy
7:53 AM 52.0 °F - 46.0 °F 80% 29.76 in 10.0 mi SW 8.1 mph - 0.00 in   Mostly Cloudy
8:53 AM 52.0 °F - 44.1 °F 74% 29.82 in 10.0 mi Variable 6.9 mph 17.3 mph 0.00 in Rain Light Rain
9:53 AM 51.1 °F - 44.1 °F 77% 29.87 in 10.0 mi SW 5.8 mph - 0.01 in   Overcast
10:53 AM 54.0 °F - 42.1 °F 64% 29.89 in 10.0 mi SW 11.5 mph 17.3 mph 0.00 in   Overcast
11:53 AM 55.0 °F - 39.9 °F 57% 29.93 in 10.0 mi WSW 13.8 mph 19.6 mph N/A   Overcast
12:53 PM 50.0 °F - 37.9 °F 63% 29.94 in 6.0 mi West 13.8 mph 43.7 mph 0.01 in Rain Light Rain
1:53 PM 53.1 °F - 39.9 °F 61% 29.95 in 10.0 mi West 18.4 mph 25.3 mph 0.00 in   Scattered Clouds
2:53 PM 53.1 °F - 41.0 °F 64% 29.96 in 10.0 mi West 11.5 mph 23.0 mph 0.00 in   Mostly Cloudy
3:53 PM 52.0 °F - 39.9 °F 63% 29.98 in 10.0 mi WSW 4.6 mph - 0.01 in   Scattered Clouds
4:53 PM 48.9 °F - 39.9 °F 71% 30.01 in 9.0 mi West 11.5 mph 18.4 mph 0.01 in Rain Light Rain
5:53 PM 46.0 °F - 39.9 °F 79% 30.01 in 10.0 mi Calm Calm - 0.01 in   Partly Cloudy
6:53 PM 48.0 °F - 39.0 °F 71% 30.02 in 10.0 mi WNW 3.5 mph - 0.00 in Rain Light Rain
7:53 PM 45.0 °F 42.6 °F 39.9 °F 82% 30.02 in 10.0 mi SW 4.6 mph - 0.01 in Rain Light Rain
8:53 PM 45.0 °F 38.9 °F 39.0 °F 80% 30.04 in 10.0 mi West 12.7 mph 18.4 mph 0.00 in Rain Light Rain
9:53 PM 43.0 °F - 37.0 °F 80% 30.04 in 10.0 mi Calm Calm - 0.02 in   Scattered Clouds
10:53 PM 41.0 °F 39.0 °F 37.0 °F 86% 30.05 in 10.0 mi WSW 3.5 mph - 0.01 in Rain Light Rain
11:53 PM 41.0 °F 39.0 °F 36.0 °F 82% 30.04 in 10.0 mi East 3.5 mph - 0.00 in   Mostly Cloudy